カタログに戻る

STARLINK-11120

運用中通信VLEO
NORAD 60042·PAYLOAD·🇺🇸 United States

打ち上げ Jun 8, 2024 から Vandenberg Space Force Base

Loading…

次のパス (今後24時間)

TLE

最新Source: CelesTrak SupGP

元期: Sep 14, 2026, 22:34 UTC

1 60042C 24112E   26257.94076389  .00080476  00000+0  66250-3 0  2573
2 60042  53.1566  53.4324 0001054  82.3976 278.5367 15.69684069    19

AllMySatでSTARLINK-11120をリアルタイム追跡

Download on the App Store